STARLINK-11187, 60184

Orbit data source: Space-Track

STARLINK-11187, 60184 is a payload satellite owned by SpaceX/Seattle (US) in LEO that was launched on Wed, 03 Jul 2024 UTC via an FALCON 9 launch vehicle from the Air Force Eastern Test Range (AFETR). Payload-class satellites include a variety of spacecraft equipped with specific instruments for various scientific and technological missions. These include communications satellites like Starlink; space stations such as the ISS; scientific satellites like the Hubble; Earth observation satellites from companies like Planet Labs, Umbra, and HawkEye 360; GPS; miniature CubeSats for education and research; and military/defense satellites.

Loading next visibility...
Identifier
60184, 2024-124B
Orbit
LEO
Last TLE update
1 day ago
Origin
Manufacturer
SpaceX/Seattle
Mission
Operational Commercial Communications
Bus & Motor
STARLINK V2M, Unknown motor
Mass
730 kg wet, ~700 kg dry
Launch date (UTC)
2024-07-03 (10 months ago)
Launch vehicle
FALCON 9
Launch site
Air Force Eastern Test Range (AFETR)
Object type
Payload
Rocket body
Debris
Shape & HBR
Box + 2 Pan, 29 m
Radar Cross Section
36.964 m², Large (>1 m²)

Expand to show TLE details & history

TLE from 1 day ago
0 STARLINK-11187
1 60184U 24124B   25108.96132944 -.00001496  00000-0 -74950-5 0  9998
2 60184  53.1584 321.9164 0000992  76.7290 283.3839 15.69700447 46711
Epoch: 2025-04-18T23:04Z
Definitive object data (Epoch: 2025-04-18T23:04:18.863Z)
Latitude
0.00001°
Longitude
128.52644°
Altitude
360.514 km
Speed
7.694 km/s
True Right ascension
21h 27m 39s
True Declination
0° 00' 00"
Sunlit
Object was in daylight at TLE epoch
Visualization TLE readout
Latitude
-16.20423°
Longitude
-44.16737°
Altitude
364.486 km
Speed
7.691 km/s
Apparent Right ascension
13h 13m 28s
Apparent Declination
-54° 44' 13"
Sunlit
Object is in full shadow
Visualization observer readout
Local Sidereal Time
07:15:08
Azimuth
137.451° SSE
Elevation
-31.379°
Doppler factor
1
Orbital elements
Apogee altitude
360.683 km
Perigee altitude
359.347 km
Semi-major axis
6,738.152 km
Eccentricity
0.0000992
Inclination
53.1584°
RAAN
321.9164°
Arg. of periapsis
76.729°
True anomaly
283.37284°
Mean anomaly
283.3839°
Eccentric anomaly
283.37837°
Mean motion
3.92403 °/min
BSTAR
-0.000007495
Orbital period
91.74 mins
Loading maneuver chart data...
Loading SW <> Apogee altitude chart data...
Loading historical data...
Loading historical data...
Loading historical data...
Loading historical data...
Loading historical data...
Loading historical data...
Loading historical data...

STARLINK-11187 Visibility forecast

Observer location: undefined°, undefined°

Span
Click to sort rows by Start time (UTC) header in descending order
Start Az.
Max El. time (UTC)
Max El. Az.
Max El.
End time (UTC)
End Az.
5 mins2025-04-20 16:31:12.900Z229.735° WSW2025-04-20 16:33:12.900Z237.465° WSW44.652°2025-04-20 16:36:12.900Z49.761° ENE
5 mins2025-04-20 22:55:12.900Z318.093° NNW2025-04-20 22:58:12.900Z51.799° ENE38.693°2025-04-20 23:00:12.900Z112.729° SE
|